Theta_e
359 358 359 359 356 352 360 357 348 347 353 358 353 357 357 356 356 357 356 355 358 358 358 356 352 344 335 341 342 339 338 338 338 338 339 338 338 338 338 338 336 338 338
360 360 359 361 362 359 354 358 357 346 346 353 360 360 357 354 356 356 356 355 358 357 358 357 354 352 350 334 339 341 339 339 338 337 340 340 336 335 335 337 338 338 336
361 362 363 362 363 363 359 355 356 355 347 346 352 361 359 356 357 356 355 357 358 358 357 356 355 353 351 350 339 342 342 339 339 338 339 339 337 336 336 336 335 336 338
361 363 364 364 364 364 364 361 356 356 356 353 350 354 362 359 357 356 355 354 355 355 356 359 358 355 352 352 350 340 342 344 340 342 340 342 341 339 337 338 337 337 338
362 363 364 364 365 365 365 365 364 359 360 359 359 361 359 362 360 357 357 357 357 357 355 356 359 359 356 352 350 347 339 341 344 341 341 340 338 342 343 341 339 339 339
354 363 364 365 365 366 366 366 366 366 361 362 362 360 363 363 362 360 359 359 359 359 360 358 357 359 359 357 353 349 344 340 339 344 340 340 340 339 341 342 341 341 342
355 355 362 365 366 366 366 367 366 367 366 364 363 364 362 363 363 363 362 360 360 360 361 361 360 358 359 359 357 355 352 348 343 337 342 341 339 340 340 342 341 340 339
355 358 358 362 365 365 366 367 367 367 367 367 366 364 365 364 363 363 363 363 361 360 361 362 361 360 359 359 358 357 353 350 349 346 340 339 341 340 339 340 341 340 340
357 360 360 362 364 365 365 366 366 366 366 366 367 366 366 366 365 365 365 363 361 361 360 360 361 361 361 360 359 356 354 351 350 349 348 344 340 340 341 341 342 342 340
360 362 362 363 365 365 366 366 367 367 366 366 366 367 366 366 366 366 366 365 361 360 360 359 359 360 360 361 360 358 354 352 351 348 347 346 344 342 341 341 341 340 339
359 358 359 362 365 366 366 367 367 368 368 367 367 366 367 367 366 367 367 367 364 363 361 359 358 358 358 359 361 360 358 356 353 349 346 344 342 344 344 342 340 337 338
359 362 361 360 362 366 367 367 368 368 369 368 368 367 368 368 368 368 367 368 366 365 364 363 360 358 356 355 353 357 360 360 356 353 347 343 341 341 342 342 339 339 338
353 362 362 361 361 362 367 368 368 368 368 369 369 368 367 367 368 368 368 368 368 368 365 364 363 361 358 357 357 356 356 356 355 354 352 346 342 340 340 340 339 335 338
357 356 367 365 365 365 362 368 369 370 369 369 368 368 367 367 367 366 367 368 367 367 367 366 364 362 359 356 354 354 354 353 349 352 352 346 342 339 339 338 337 337 336
363 358 369 368 367 368 364 367 368 368 369 369 368 367 366 364 365 367 365 364 366 366 365 362 357 356 356 356 355 352 350 349 344 347 349 346 340 338 336 335 337 336 333
370 362 371 369 368 366 355 348 356 360 361 366 367 367 363 362 362 360 360 358 357 356 359 355 355 355 355 351 347 346 344 343 344 346 347 344 337 337 336 336 336 333 331
366 368 367 368 369 359 349 348 338 341 349 354 356 361 359 357 357 356 355 354 353 354 357 352 349 346 345 344 342 340 339 339 340 342 340 340 337 335 334 334 333 332 328
364 364 365 363 364 362 354 350 348 341 339 338 341 345 345 342 341 341 342 343 345 347 347 345 343 342 340 338 338 338 337 338 339 340 337 332 334 333 332 330 330 329 327
362 363 363 362 362 364 358 353 347 345 336 332 333 335 336 337 337 338 338 338 337 336 337 337 337 336 334 334 334 334 335 337 338 338 338 335 335 334 332 332 329 329 327
356 354 354 359 359 359 359 358 352 342 335 331 331 332 334 336 337 336 336 336 336 336 336 336 335 335 335 334 333 333 332 333 334 335 336 335 334 334 332 329 327 325 325
353 352 352 350 351 351 349 347 345 344 338 337 336 335 337 338 336 336 337 335 335 335 336 336 337 336 336 334 333 333 333 332 334 335 335 334 332 331 329 328 327 326 325
348 348 348 346 346 345 345 345 344 340 338 336 334 335 335 337 336 335 335 336 335 335 335 336 336 336 334 334 333 334 335 334 333 334 333 332 330 330 329 327 327 326 325
346 344 343 341 340 340 339 339 339 337 335 334 332 333 335 335 335 335 335 336 337 337 336 336 336 335 335 335 334 333 333 334 334 333 333 331 330 330 330 328 326 324 323
334 334 332 332 333 332 332 331 331 331 330 329 329 330 329 329 331 334 335 335 335 337 337 336 336 335 334 333 333 333 333 333 333 333 333 331 330 329 328 326 326 325 322
328 328 328 328 328 328 328 327 325 324 323 322 322 322 322 322 322 322 323 324 330 335 335 335 334 333 333 333 332 332 332 332 331 331 332 330 328 328 328 324 321 319 316
322 321 321 320 320 319 319 318 318 317 316 315 314 313 313 313 313 314 315 314 315 314 315 319 326 331 333 332 331 331 330 329 329 329 328 326 324 324 323 322 320 317 314
Wind_Speed
38 39 37 37 39 39 32 37 39 37 28 21 24 27 37 36 32 28 27 27 25 23 22 21 20 20 22 18 13 17 16 14 9 9 11 18 22 21 19 20 18 19 18
42 37 37 33 32 36 38 36 35 41 39 33 21 25 31 35 33 33 31 30 28 28 26 24 25 22 23 25 19 22 22 21 19 16 10 23 24 24 22 22 22 22 16
38 37 35 35 35 33 37 39 39 39 42 41 36 28 33 36 36 35 34 32 32 29 30 31 31 29 30 29 29 26 26 26 23 22 16 23 27 26 25 22 21 21 19
39 39 37 37 36 37 36 37 38 39 41 41 42 39 34 38 39 38 35 36 37 38 36 32 36 39 38 35 34 36 30 27 28 27 25 23 27 27 30 28 27 25 22
39 38 39 38 37 36 36 34 37 40 39 42 39 41 39 38 41 42 40 40 41 41 40 40 40 41 41 41 38 38 38 36 31 31 28 28 29 19 31 33 31 28 26
39 39 39 38 37 39 37 37 36 38 40 37 41 39 40 41 40 43 43 40 42 39 39 43 43 39 42 41 41 41 40 41 33 28 29 23 29 31 29 31 32 26 14
39 40 38 38 39 39 39 36 38 37 35 39 38 41 40 43 43 44 46 44 39 40 42 40 39 39 40 43 45 44 45 43 44 39 34 31 31 37 35 34 30 29 24
37 37 39 37 38 39 38 39 39 38 38 38 38 40 39 43 45 45 46 47 41 41 41 42 41 39 40 42 42 47 49 49 48 45 44 40 42 37 39 39 35 35 22
35 33 39 39 39 37 39 38 38 37 36 38 37 37 40 42 41 43 43 47 44 44 39 39 41 40 40 39 39 39 44 48 46 52 51 48 44 37 30 34 25 25 10
33 35 37 38 38 39 39 39 37 39 37 34 35 36 39 40 38 39 40 42 40 39 37 40 40 41 34 36 42 37 37 40 40 39 46 50 46 43 39 35 39 26 17
31 38 38 37 41 41 38 36 35 34 32 33 33 33 34 36 36 36 39 42 40 35 35 34 33 34 34 38 39 44 43 39 37 40 41 45 38 37 42 40 39 28 26
18 26 34 38 37 32 35 32 32 31 30 29 28 29 31 31 32 33 37 40 39 37 36 34 31 31 28 32 36 47 48 47 42 33 33 32 34 35 40 42 41 39 41
9 21 31 34 35 33 30 29 28 29 27 25 25 25 26 26 28 33 35 37 38 43 35 32 32 32 31 26 21 18 32 47 37 32 30 30 33 37 40 38 40 30 32
8 13 22 32 33 32 31 28 26 25 25 25 24 24 21 22 28 31 30 35 37 39 41 42 39 37 38 32 29 35 33 29 33 36 33 29 33 36 37 40 30 30 26
14 15 20 27 29 25 23 20 23 24 27 25 24 22 22 21 26 29 29 28 33 36 35 36 27 25 27 29 32 30 25 22 22 29 30 29 32 37 38 32 29 31 25
20 19 18 22 25 24 24 13 11 17 19 26 24 26 23 19 22 15 15 12 8 10 19 20 20 23 23 18 14 16 21 21 21 27 29 25 10 8 7 21 29 28 27
21 17 17 19 21 21 23 23 19 13 11 13 12 14 18 16 15 11 10 9 8 8 13 16 14 11 12 13 13 13 16 18 17 14 9 10 13 13 26 25 21 22 18
19 19 16 20 21 21 25 25 25 24 17 13 14 13 12 9 7 5 6 7 7 6 8 8 6 5 6 6 8 12 12 6 11 12 13 8 15 23 24 24 25 23 19
9 11 16 23 25 23 26 24 23 19 18 20 18 16 16 16 15 12 9 9 11 11 11 10 10 9 8 8 9 7 5 6 7 11 12 17 23 22 24 27 26 24 24
2 4 6 15 21 22 25 23 22 23 22 20 16 17 18 13 12 11 11 11 11 10 9 7 7 6 6 6 9 8 8 9 11 13 16 18 20 20 21 22 23 24 26
6 7 8 15 22 18 23 25 27 23 22 22 19 14 11 7 12 11 9 6 5 5 4 4 8 5 6 7 6 6 7 9 12 14 21 22 22 23 24 26 27 23 22
12 10 11 19 21 24 26 25 23 25 23 20 14 12 10 14 15 10 6 4 4 4 4 5 5 5 6 8 6 7 9 12 13 14 15 18 22 24 22 22 21 25 23
14 13 19 20 23 25 22 21 21 22 22 16 13 14 10 9 7 5 4 5 5 6 5 6 7 7 8 7 10 10 10 12 14 15 16 17 18 21 17 23 21 21 24
27 31 30 27 30 30 28 28 32 32 31 27 24 24 25 25 18 4 2 6 7 6 5 6 7 6 8 7 9 12 8 5 13 16 16 18 16 18 15 18 23 28 29
29 29 30 28 29 29 28 28 27 25 26 24 24 24 23 23 24 23 21 19 10 3 2 2 2 2 4 7 5 7 11 10 10 10 16 16 15 17 21 18 16 19 23
30 30 30 32 30 30 27 28 27 26 25 24 25 28 27 27 27 25 24 24 22 19 16 14 6 6 7 8 11 10 9 10 11 15 14 14 12 14 17 17 17 18 18
Wind_Direction
194 200 204 208 213 214 215 221 224 225 226 233 235 225 217 214 216 219 225 225 226 228 224 226 236 236 237 233 231 217 226 229 213 228 231 199 187 198 208 216 215 218 227
197 199 205 207 208 211 214 218 222 224 226 229 227 218 217 215 217 219 222 223 228 230 228 225 233 235 237 238 235 228 223 224 231 228 224 204 205 212 217 207 213 225 237
194 199 201 205 206 209 214 217 220 224 226 228 231 223 216 217 218 219 222 224 225 232 233 230 231 230 233 233 235 235 231 228 227 230 218 204 208 211 209 216 227 235 237
193 197 201 203 205 209 212 215 216 221 226 227 230 230 222 218 220 222 223 226 229 231 233 235 235 231 233 230 231 234 232 231 227 224 221 209 214 220 218 215 218 226 232
193 198 202 204 205 209 213 213 217 220 222 226 226 230 229 226 222 223 223 225 229 232 235 236 240 239 238 239 232 234 233 229 227 228 226 224 224 211 211 216 219 225 228
196 198 202 202 203 207 211 213 215 219 220 224 226 224 225 226 225 224 224 221 227 227 230 237 238 242 243 241 240 242 241 232 228 226 229 226 226 225 221 212 213 217 228
198 203 202 201 202 205 209 210 214 218 218 220 224 225 225 227 228 226 226 224 224 226 228 231 234 235 239 240 238 239 241 240 242 232 232 226 228 224 225 218 213 212 223
200 201 203 201 202 204 207 209 213 216 217 219 222 224 226 231 230 229 227 229 229 230 230 231 231 233 232 236 234 233 236 238 239 238 238 238 238 237 233 232 224 220 215
199 197 200 201 202 202 206 210 212 215 218 222 224 225 227 233 233 232 230 231 234 236 235 236 236 236 236 232 234 231 237 237 241 243 243 243 242 238 242 235 212 194 181
199 201 202 200 201 204 207 209 210 213 218 221 226 228 230 235 234 233 232 231 238 242 242 244 244 244 244 241 235 231 232 236 236 239 242 241 238 236 227 218 210 184 222
207 211 211 210 208 208 207 208 208 212 217 221 226 229 233 237 237 237 234 232 234 242 245 248 247 250 249 248 246 238 237 244 242 238 238 238 232 230 224 223 217 221 233
224 219 219 218 213 208 204 204 205 208 213 219 223 230 235 238 240 239 238 238 236 237 242 247 250 248 252 260 254 248 246 244 242 242 233 227 215 209 214 214 217 223 231
240 229 224 223 223 212 207 200 200 205 211 217 221 227 235 238 244 242 244 243 241 243 245 249 249 250 248 256 267 277 258 247 242 241 240 229 221 210 209 212 206 230 227
255 256 234 216 212 214 211 203 200 204 210 216 219 227 231 232 237 241 247 242 243 244 246 250 250 250 252 261 273 279 278 269 245 240 241 235 220 205 209 205 211 205 199
283 264 241 214 202 193 195 202 207 210 214 216 219 219 219 229 240 240 244 245 241 241 246 250 250 251 257 264 270 272 269 263 258 247 244 232 215 204 197 199 206 173 180
302 267 231 202 194 178 173 142 194 199 215 224 223 222 224 236 232 206 199 195 210 237 231 234 237 244 248 250 255 272 282 277 264 248 239 234 221 261 228 180 182 176 157
293 258 238 211 193 166 166 157 128 116 152 192 198 207 209 189 179 193 211 226 239 217 205 214 219 230 249 266 275 277 278 281 272 262 164 174 207 198 157 149 162 161 160
287 254 249 222 215 173 173 178 176 158 149 122 129 151 151 157 166 189 189 176 148 163 177 172 182 207 231 251 263 259 267 270 230 204 189 198 180 148 139 150 162 168 171
287 273 259 243 219 188 177 176 177 161 145 136 127 121 124 120 121 121 120 131 125 128 140 152 164 175 195 213 228 254 267 245 191 173 178 187 180 180 166 169 172 179 187
281 98 100 145 153 154 155 151 137 143 148 150 142 138 135 130 128 119 120 127 135 144 153 167 195 205 212 238 236 233 229 223 228 221 202 193 178 183 180 177 178 183 191
188 158 129 112 127 133 132 129 130 119 114 128 135 146 146 156 148 139 139 136 150 169 192 202 188 196 214 226 217 181 187 198 194 192 186 186 184 186 189 183 185 195 194
202 192 161 119 109 104 103 111 114 109 112 114 120 141 127 108 143 129 119 118 137 164 190 194 171 211 236 240 229 192 173 184 195 193 184 190 188 189 187 195 196 194 193
201 149 115 104 97 105 99 99 109 110 105 94 98 128 123 114 123 121 170 174 164 167 167 187 200 217 234 248 251 234 207 204 204 195 199 191 187 192 211 202 200 194 197
99 95 90 86 84 79 79 77 74 79 80 74 72 70 71 71 70 97 142 185 185 191 206 232 235 258 239 236 240 241 232 232 224 226 216 204 215 216 210 198 208 203 200
98 95 94 91 86 85 83 79 74 72 71 66 62 60 62 63 64 62 64 64 73 149 220 254 231 219 214 204 211 193 201 223 231 215 208 222 220 220 226 203 185 186 184
83 87 88 85 83 84 82 79 76 74 71 67 66 68 67 65 64 63 64 64 65 62 68 71 97 173 201 209 217 232 244 250 243 224 204 191 181 195 196 192 188 187 191